Powrót do katalogu

CZ-2D R/B

AktywnySSO
NORAD 54030·ROCKET BODY·🇨🇳 China

Wystrzelony Oct 8, 2022 z Jiuquan Satellite Launch Center

Loading…

Następne Przeloty (najbliższe 24 godziny)

TLE

ŚwieżeSource: Space-Track

Epoka: Sep 14, 2026, 10:55 UTC

1 54030U 22129B   26257.45488702  .00000217  00000-0  58612-4 0  9994
2 54030  98.2169 259.2658 0017555 352.1075   7.9845 14.56852214209004

Śledź CZ-2D R/B w czasie rzeczywistym z AllMySat

Download on the App Store